Laurent Verva

Laurent Verva

Statistiques 2026

  • Courses courues : 42
  • Nb de victoires : -
  • Nb de places : 1
  • Écart gagnant : 143
  • Réussite à la gagne : -
  • Réussite à la place : 2%
Musique : 0a 8a 4a 6a 6a 0a 5a 5a Da 2a 9a 6a 5a Da 6a 0a 7a 4a
DateRangCatégorieAlloc.Dist.HippodromeChevalRed. KmSpé.
25/05/15 2 Trot 12 000€ 2 900m Arras Artus Tonton Attelé
25/05/15 3 Trot 12 000€ 2 925m Arras All Along Attelé
14/05/17 D Trot 12 000€ 2 900m Arras Elokai Attelé
14/05/17 D Trot 13 000€ 2 900m Arras Dragonera Attelé
14/05/17 1 Trot 32 000€ 2 900m Arras Buxus Calendes TNC Attelé
14/05/17 D Trot 13 000€ 2 925m Arras Calie du Lion Attelé
20/08/17 7 Trot 12 000€ 2 400m Arras Ethano de Bouteau Attelé
20/08/17 4 Trot 15 000€ 2 925m Arras Calie du Lion Attelé
20/08/17 D Trot 13 000€ 2 925m Arras Datcha du Vivier Attelé
20/08/17 4 Trot 20 000€ 2 900m Arras Celia du Minon Attelé
22/04/18 D Trot 13 000€ 2 900m Arras Elite d'Alci Attelé
22/04/18 5 Trot 13 000€ 2 900m Arras Extra de la Loge Attelé
22/04/18 2 Trot 13 000€ 2 925m Arras Dulcinee d'Arbaz Attelé
08/05/18 D Trot 12 000€ 2 900m Arras Fortunata Attelé
08/05/18 4 Trot 12 000€ 2 900m Arras Farca Sly TNC Attelé
08/05/18 D Trot 13 000€ 2 900m Arras Eleve Attelé
08/05/18 D Trot 13 000€ 2 900m Arras Elite d'Alci Attelé
21/05/18 5 Trot 12 000€ 2 900m Arras Farca Sly Attelé
21/05/18 4 Trot 13 000€ 2 900m Arras Electric Wood Attelé
21/05/18 2 Trot 13 000€ 2 900m Arras Eclipse Magique Attelé
21/05/18 0 Trot 23 000€ 2 925m Arras Au Temps Dubonheur Attelé
17/06/18 5 Trot 12 000€ 2 900m Arras Frivole d'Arbaz Attelé
17/06/18 D Trot 13 000€ 2 900m Arras Envouteuse Attelé
17/06/18 6 Trot 45 000€ 2 900m Arras Un Diable Blanc 1'18"0 Attelé
17/06/18 D Trot 13 000€ 2 900m Arras Eleve Attelé
17/06/18 2 Trot 13 000€ 2 900m Arras Eros In Love Attelé
19/08/18 2 Trot 13 000€ 2 900m Arras Falco d'Alci TNC Attelé
19/08/18 1 Trot 16 000€ 2 925m Arras Destrier d'Isques Attelé
19/08/18 4 Trot 21 000€ 2 925m Arras Cybele de Godrel Attelé
19/08/18 3 Trot 14 000€ 2 925m Arras Elixir Neslois Attelé
07/06/15 D Trot 11 000€ 2 400m Arras Chimede d'Alci Attelé
07/06/15 7 Trot 15 000€ 2 900m Arras Bonnie du Jaguy Attelé
07/06/15 D Trot 15 000€ 2 900m Arras Baronne Normande Attelé
07/06/15 6 Trot 15 000€ 2 900m Arras Artus Tonton Attelé
07/06/15 1 Trot 15 000€ 2 900m Arras Aramis Erca TNC Attelé
07/06/15 7 Trot 23 000€ 2 900m Arras Ufgy Barbes Attelé
21/06/15 D Trot 12 000€ 2 400m Arras Castille d'Alci Attelé
21/06/15 4 Trot 12 000€ 2 400m Arras Cosaque de Monchel Attelé
21/06/15 3 Trot 24 000€ 2 925m Arras Unieme Charm Attelé
21/06/15 5 Trot 15 000€ 2 900m Arras Ble du Ril Attelé
16/05/16 7 Trot 12 000€ 2 900m Arras Divine du Houlet Attelé
16/05/16 3 Trot 12 000€ 2 900m Arras Cresus du Cyd Attelé
16/05/16 D Trot 12 000€ 2 900m Arras Cyrus d'Alci Attelé
16/05/16 4 Trot 12 000€ 2 925m Arras Bilingue d'Alci Attelé
16/05/16 0 Trot 25 000€ 2 925m Arras Uniaxe Erem Attelé
05/06/16 D Trot 13 000€ 2 900m Arras Cash du Houlet Attelé
05/06/16 5 Trot 13 000€ 2 900m Arras Cresus du Cyd Attelé
05/06/16 8 Trot 15 000€ 2 925m Arras Beji d'hellebroucq Attelé
05/06/16 0 Trot 20 000€ 2 900m Arras Borsalino du Jal Attelé
19/06/16 5 Trot 12 000€ 2 400m Arras Dapril de Navary Attelé